Weather History for Jordan, MT

Change the Weather History Date:

Monday, September 30, 2013

  Actual Average Record
Temperature  
Mean Temperature 52 °F 51 °F  
Max Temperature 70 °F 66 °F 96 °F (1963)
Min Temperature 34 °F 36 °F 13 °F (1985)
Degree Days  
Heating Degree Days 13 14  
Month to date heating degree days 148 262  
Since 1 July heating degree days 161 326  
Cooling Degree Days 0 0  
Month to date cooling degree days 77 27  
Year to date cooling degree days 520 420  
Growing Degree Days 4 (Base 50)    
Moisture  
Dew Point 37 °F    
Average Humidity 61    
Maximum Humidity 89    
Minimum Humidity 33    
Precipitation  
Precipitation 0.09 in 0.03 in 0.93 in (1977)
Month to date precipitation 1.16 1.21  
Year to date precipitation 15.46 11.13  
Snow  
Snow 0.00 in - - ()
Month to date snowfall 0.0  
Since 1 July snowfall 0.0  
Since 1 September snowfall 0.0  
Snow Depth 0.00 in    
Sea Level Pressure  
Sea Level Pressure 29.57 in    
Wind  
Wind Speed 10 mph (WSW)    
Max Wind Speed 33 mph    
Max Gust Speed 41 mph    
T = Trace of Precipitation, MM = Missing Value Source: NWS Daily Summary

Daily Weather History Graph

Daily Weather History Graph

Search for Another Location

Airport:

Trip Planner

Search our weather history database for the weather conditions in past years. The results will help you decide how hot, cold, wet, or windy it might be!

Date:

Astronomy

Sep. 30, 2013 Rise Set
Actual Time 7:05 AM MDT 6:48 PM MDT
Civil Twilight 6:35 AM MDT 7:19 PM MDT
Nautical Twilight 5:59 AM MDT 7:54 PM MDT
Astronomical Twilight 5:23 AM MDT 8:30 PM MDT
Moon 2:30 AM MDT (9/30) 4:33 PM MDT (9/30)
Length of Visible Light 12h 43m
Length of Day
11h 42m
Waning Crescent, 18% of the Moon is Illuminated
Sep 30
Waning Crescent
Oct 4
New
Oct 11
First Quarter
Oct 18
Full
Oct 26
Last Quarter

Hourly Weather History & Observations

Time (MDT) Temp. Windchill Dew Point Humidity Pressure Visibility Wind Dir Wind Speed Gust Speed Precip Events Conditions
12:48 AM 52.0 °F - 39.0 °F 61% 29.57 in - SW 11.5 mph - N/A   Unknown
1:48 AM 51.1 °F - 37.0 °F 59% 29.57 in - SSW 10.4 mph - N/A   Unknown
2:48 AM 48.9 °F - 37.0 °F 64% 29.57 in - NE 3.5 mph - N/A   Unknown
3:48 AM 44.1 °F 42.5 °F 37.0 °F 76% 29.56 in - East 3.5 mph - N/A   Unknown
4:48 AM 44.1 °F 42.5 °F 37.0 °F 76% 29.55 in - East 3.5 mph - N/A   Unknown
5:48 AM 45.0 °F 43.5 °F 37.9 °F 76% 29.52 in - East 3.5 mph - N/A   Unknown
6:48 AM 48.0 °F - 39.0 °F 71% 29.52 in - Calm Calm - N/A   Unknown
7:48 AM 48.9 °F - 39.0 °F 69% 29.50 in - SSW 6.9 mph - N/A   Unknown
8:48 AM 55.0 °F - 39.9 °F 57% 29.47 in - SSW 13.8 mph - N/A   Unknown
9:48 AM 63.0 °F - 41.0 °F 45% 29.44 in - SW 16.1 mph - N/A   Unknown
10:48 AM 66.9 °F - 42.1 °F 40% 29.42 in - WSW 20.7 mph 27.6 mph N/A   Unknown
11:48 AM 66.9 °F - 43.0 °F 42% 29.45 in - West 19.6 mph 26.5 mph N/A   Unknown
12:48 PM 52.0 °F - 48.9 °F 89% 29.59 in - West 17.3 mph 26.5 mph 0.05 in   Unknown
1:48 PM 55.9 °F - 46.0 °F 69% 29.56 in - WSW 10.4 mph 23.0 mph 0.04 in   Unknown
2:48 PM 57.9 °F - 37.0 °F 46% 29.52 in - SW 13.8 mph 23.0 mph N/A   Unknown
3:15 PM 57.2 °F - 37.4 °F 48% 29.53 in - West 17.3 mph 31.1 mph N/A   Unknown
3:48 PM 60.1 °F - 35.1 °F 39% 29.56 in - West 18.4 mph 29.9 mph N/A   Unknown
4:48 PM 57.0 °F - 30.9 °F 37% 29.58 in - West 19.6 mph 27.6 mph N/A   Unknown
5:48 PM 59.0 °F - 30.0 °F 33% 29.61 in - WSW 17.3 mph 27.6 mph N/A   Unknown
6:48 PM 54.0 °F - 33.1 °F 45% 29.65 in - West 8.1 mph - N/A   Unknown
7:48 PM 50.0 °F - 30.9 °F 48% 29.68 in - West 10.4 mph - N/A   Unknown
8:48 PM 48.9 °F - 28.9 °F 46% 29.71 in - WSW 8.1 mph - N/A   Unknown
9:48 PM 42.1 °F 39.2 °F 28.9 °F 60% 29.73 in - SW 4.6 mph - N/A   Unknown
10:48 PM 42.1 °F 39.2 °F 30.0 °F 62% 29.74 in - SW 4.6 mph - N/A   Unknown
11:48 PM 37.0 °F - 28.9 °F 73% 29.77 in - Calm Calm - N/A   Unknown